Powrót do katalogu

COSMOS 1275 DEB

AktywnyPO
NORAD 39965·DEBRIS·🇷🇺 Russia

Wystrzelony Jun 4, 1981 z Plesetsk Cosmodrome

Loading…

Następne Przeloty (najbliższe 24 godziny)

TLE

ŚwieżeSource: Space-Track

Epoka: Sep 14, 2026, 03:09 UTC

1 39965U 81053PB  26257.13148473  .00000520  00000-0  44636-3 0  9995
2 39965  82.9692 185.9821 0045464  88.3180 335.4256 13.84528143618928

Śledź COSMOS 1275 DEB w czasie rzeczywistym z AllMySat

Download on the App Store